Orbital Elements at Epoch 2459200.5 (2020-Dec-17.0) TDB
Reference: JPL 20 (heliocentric ecliptic J2000)
Element | Value | Uncertainty (1-sigma) | Units |
e | .1349452967746634 | 4.3788e-08 | |
a | 2.354440512164602 | 1.2186e-08 | au |
q | 2.036719838512259 | 1.0214e-07 | au |
i | 6.327539650394752 | 5.1423e-06 | deg |
node | 334.9541215583068 | 3.4729e-05 | deg |
peri | 25.22682509257503 | 3.7795e-05 | deg |
M | 330.1127766390723 | 1.5987e-05 | deg |
tp | 2459310.050175659644 (2021-Apr-05.55017566) | 5.8931e-05 | TDB |
period | 1319.562635886413 3.61 | 1.0245e-05 2.805e-08 | d yr |
n | .272817667164523 | 2.1181e-09 | deg/d |
Q | 2.672161185816945 | 1.3831e-08 | au |
|
| | Orbit Determination Parameters
Additional Information
|